Location: Maccacari
(45.1333°N, 11.1333°E)
Time: 16:50:23
(UTC+00:00)

SR - Pass Details

Date: 23 June 2021
Orbit: 577 x 878 km, 66.7° (Epoch: 24 July)

Event Time Altitude Azimuth Distance (km) Brightness Sun altitude
Rises 22:39:57 0° 331° (NNW) 3,314 ? -20.9°
Reaches altitude 10° 22:42:37 10° 338° (NNW) 2,333 ? -21.0°
Maximum altitude 22:47:38 41° 48° (NE) 1,060 ? -21.1°
Enters shadow 22:50:29 21° 107° (ESE) 1,552 ? -21.2°
